Home > Weather > Palm Springs > Past weeks

Flag for U.S.A. Weather for the Past 2 Weeks in Palm Springs, California, U.S.A.

Now
76 °F

Clear.


Feels Like: 76 °F
Forecast: 55 / 83 °F
Wind: 6 mph from Northwest

Location: Palm Springs Regional Airport

Current Time: Feb 8, 2016 at 8:08:01 PM

Latest Report: Feb 8, 2016 at 6:53 PM


Visibility: 10 mi

Pressure: 30.19 "Hg

Humidity: 14%

Dew point: 23 °F

Location of Palm SpringsLocation

Historic Weather in Palm Springs — Graph

°F

Palm Springs Temperature Yesterday

Maximum temperature yesterday: 83 °F (at 2:53 PM)
Minimum temperature yesterday: 54 °F (at 1:53 AM)
Average temperature yesterday: 70 °F

High & Low Weather Summary for the Past Weeks

 TemperatureHumidityPressure
High83 °F (Feb 7, 2:53 PM)100% (Jan 31, 4:53 PM)30.44 "Hg (Jan 31, 4:53 PM)
Low39 °F (Feb 2, 6:53 AM)9% (Jan 26, 2:53 PM)29.55 "Hg (Jan 31, 5:53 PM)
Average60 °F30%30.16 "Hg
* Reported Jan 24 5:53 PM — Feb 8 5:53 PM, Palm Springs, Weather by CustomWeather, © 2016

Note: Actual official high and low records may vary slightly from our data, if they occured in-between our weather recording intervals... More about our weather records

Advertising

Palm Springs Weather History for the Previous 24 Hours

 ConditionsComfort  
Time TempWeatherWind HumidityBarometerVisibility
5:53 PM
Mon, Feb 8
76 °FClear.7 mph14%30.19 "Hg10 mi
4:53 PM80 °FSunny.6 mph12%30.17 "Hg10 mi
3:53 PM82 °FSunny.No wind10%30.17 "Hg10 mi
2:53 PM82 °FSunny.5 mph10%30.17 "Hg10 mi
1:53 PM81 °FSunny.5 mph11%30.18 "Hg10 mi
12:53 PM81 °FSunny.5 mph11%30.21 "Hg10 mi
11:53 AM81 °FSunny.8 mph11%30.24 "Hg10 mi
10:53 AM79 °FSunny.3 mph11%30.27 "Hg10 mi
9:53 AM78 °FSunny.8 mph12%30.28 "Hg10 mi
8:53 AM75 °FSunny.7 mph15%30.28 "Hg10 mi
7:53 AM70 °FSunny.8 mph16%30.28 "Hg10 mi
6:53 AM69 °FSunny.7 mph17%30.27 "Hg10 mi
5:53 AM69 °FClear.8 mph17%30.25 "Hg10 mi
4:53 AM69 °FClear.14 mph17%30.24 "Hg10 mi
3:53 AM65 °FClear.6 mph22%30.22 "Hg10 mi
2:53 AM66 °FClear.5 mph20%30.22 "Hg10 mi
1:53 AM70 °FClear.9 mph17%30.23 "Hg10 mi
12:53 AM66 °FClear.6 mph20%30.24 "Hg10 mi
11:53 PM
Sun, Feb 7
72 °FClear.6 mph14%30.23 "Hg10 mi
10:53 PM71 °FClear.9 mph14%30.22 "Hg10 mi
9:53 PM67 °FClear.7 mph18%30.22 "Hg10 mi
8:53 PM73 °FClear.9 mph12%30.21 "Hg10 mi
Weather by CustomWeather, © 2016

See weather overviewHow to use our weather pages